Regional Weather Roundup
Issued by NWS State College, PA

Home | Current Version | Previous Version | Text Only | Print | Product List | Glossary Off
Versions: 1 2 3 4 5 6 7 8 9 10 11 12 13 14 15 16 17 18 19 20 21 22 23 24 25 26 27 28 29 30 31 32 33 34 35 36 37 38 39 40 41 42 43 44 45 46 47 48 49 50

000
ASUS41 KCTP 300210
RWRCTP

REGIONAL WEATHER ROUNDUP
NATIONAL WEATHER SERVICE STATE COLLEGE PA
1000 PM EDT MON AUG 29 2016

Note: "fair" indicates few or no clouds below 12,000 feet with no
significant weather and/or obstructions to visibility.

* = STATION THAT DOES NOT REPORT PRECIPITATION /E.G. RAIN...SNOW...ETC/
    THUNDER OR FOG.

PAZ002>004-007>009-013>016-020>023-029>032-300300-
WESTERN PENNSYLVANIA

CITY           SKY/WX    TMP DP  RH WIND       PRES   REMARKS
ERIE           CLEAR     68  61  78 S5        30.23R
MEADVILLE      CLEAR     63  53  70 N5        30.25R
FRANKLIN*        N/A     64  52  63 N5        30.26R
NEW CASTLE     FAIR      69  57  65 N6        30.24R
BEAVER COUNTY  NOT AVBL
BUTLER*        NOT AVBL
PITTSBURGH INT CLEAR     76  56  49 N8        30.22R
PITTSBURGH     CLEAR     73  56  54 N6        30.20R
INDIANA*       CLEAR     66  63  88 CALM      30.25R
LATROBE        CLEAR     68  64  88 CALM      30.22R
WASHINGTON CO* CLEAR     64  61  88 CALM      30.22R
$$

PAZ004>006-010>012-017>019-024>028-033>037-041-042-045-046-049>053-300300-
CENTRAL PENNSYLVANIA

CITY           SKY/WX    TMP DP  RH WIND       PRES   REMARKS
BRADFORD       CLEAR     63  59  87 NW3       30.26S
DUBOIS         CLEAR     70  55  59 N6        30.23S
CLEARFIELD     NOT AVBL
JOHNSTOWN      CLEAR     71  57  61 N5        30.25R
ALTOONA        CLEAR     65  62  90 CALM      30.22R
STATE COLLEGE  PTCLDY    70  60  70 E5        30.21R
WILLIAMSPORT   CLEAR     70  61  73 N3        30.17R
SELINSGROVE    CLEAR     65  65 100 CALM      30.17R
FT INDIANTOWN  CLEAR     69  62  78 NE3       30.16R
CAPITAL CITY   CLEAR     76  61  59 CALM      30.15R
HARRISBURG     PTCLDY    75  63  66 CALM      30.15R
YORK           CLEAR     68  62  81 CALM      30.16R
$$

PAZ038>040-043-044-047-048-054-055-060>062-067>071-300300-
EASTERN PENNSYLVANIA

CITY           SKY/WX    TMP DP  RH WIND       PRES   REMARKS
SCRANTON       CLEAR     70  59  68 E5        30.19R
MOUNT POCONO     N/A     61  56  83 N5        30.23R
ALLENTOWN      CLEAR     69  60  73 N3        30.16R
QUAKERTOWN*    CLEAR     75  59  57 N5        30.16S
READING        CLEAR     74  60  61 N3        30.15R
LANCASTER      CLEAR     74  63  68 NE8       30.15R
COATESVILLE    CLEAR     75  61  60 N7        30.17S
POTTSTOWN      CLEAR     75  60  59 N5        30.16R
BLUE BELL      CLEAR     72  61  68 CALM      30.13S
DOYLESTOWN     CLEAR     75  61  61 NE3       30.14S
WILLOW GROVE   NOT AVBL
NORTH PHILA    CLEAR     79  61  53 N9        30.14R
PHILADELPHIA   CLEAR     83  60  45 N9        30.12R
$$




USA.gov is the U.S. government's official web portal to all federal, state and local government web resources and services.